Time,TemperatureF,DewpointF,PressureIn,WindDirection,WindDirectionDegrees,WindSpeedMPH,WindSpeedGustMPH,Humidity,HourlyPrecipIn,Conditions,Clouds,dailyrainin,SoftwareType,DateUTC
2013-02-27 00:04:00,43.5,22.5,29.25,North,357,0.0,0.0,43,0.00,,,0.00,meteohub,2013-02-27 06:04:00,
2013-02-27 00:09:00,43.5,22.5,29.25,North,357,0.0,0.0,43,0.00,,,0.00,meteohub,2013-02-27 06:09:00,
2013-02-27 00:14:00,43.5,22.5,29.25,North,357,0.0,0.0,43,0.00,,,0.00,meteohub,2013-02-27 06:14:00,
2013-02-27 00:19:00,43.3,21.7,29.25,North,357,0.0,0.0,42,0.00,,,0.00,meteohub,2013-02-27 06:19:00,
2013-02-27 00:24:00,43.3,21.7,29.25,North,357,0.0,0.0,42,0.00,,,0.00,meteohub,2013-02-27 06:24:00,
2013-02-27 00:30:00,43.2,22.1,29.28,North,357,0.0,0.0,43,0.00,,,0.00,meteohub,2013-02-27 06:30:00,
2013-02-27 00:35:00,42.8,21.9,29.28,North,357,0.0,0.0,43,0.00,,,0.00,meteohub,2013-02-27 06:35:00,
2013-02-27 00:40:00,42.4,21.6,29.28,North,357,0.0,0.0,43,0.00,,,0.00,meteohub,2013-02-27 06:40:00,
2013-02-27 00:45:00,42.3,21.4,29.28,North,357,0.0,0.0,43,0.00,,,0.00,meteohub,2013-02-27 06:45:00,
2013-02-27 00:50:00,41.9,21.0,29.28,North,357,0.0,0.0,43,0.00,,,0.00,meteohub,2013-02-27 06:50:00,
2013-02-27 00:55:00,41.5,21.2,29.28,North,357,0.0,0.0,44,0.00,,,0.00,meteohub,2013-02-27 06:55:00,
2013-02-27 01:00:00,41.2,20.8,29.28,North,357,0.0,0.0,44,0.00,,,0.00,meteohub,2013-02-27 07:00:00,
2013-02-27 01:05:00,40.8,21.2,29.28,North,357,0.0,0.0,45,0.00,,,0.00,meteohub,2013-02-27 07:05:00,
2013-02-27 01:10:00,40.6,21.0,29.28,North,357,0.0,0.0,45,0.00,,,0.00,meteohub,2013-02-27 07:10:00,
2013-02-27 01:15:00,40.3,20.7,29.28,North,357,0.0,0.0,45,0.00,,,0.00,meteohub,2013-02-27 07:15:00,
2013-02-27 01:20:00,40.1,21.0,29.28,North,357,0.0,0.0,46,0.00,,,0.00,meteohub,2013-02-27 07:20:00,
2013-02-27 01:25:00,39.9,21.4,29.28,North,357,0.0,0.0,47,0.00,,,0.00,meteohub,2013-02-27 07:25:00,
2013-02-27 01:30:00,39.7,21.2,29.28,North,357,0.0,0.0,47,0.00,,,0.00,meteohub,2013-02-27 07:30:00,
2013-02-27 01:35:00,39.6,21.0,29.28,North,357,0.0,0.0,47,0.00,,,0.00,meteohub,2013-02-27 07:35:00,
2013-02-27 01:40:00,39.4,20.8,29.28,North,357,0.0,0.0,47,0.00,,,0.00,meteohub,2013-02-27 07:40:00,
2013-02-27 01:46:00,39.2,21.2,29.28,North,357,0.0,0.0,48,0.00,,,0.00,meteohub,2013-02-27 07:46:00,
2013-02-27 01:51:00,39.2,21.2,29.28,ENE,59,2.0,0.0,48,0.00,,,0.00,meteohub,2013-02-27 07:51:00,
2013-02-27 01:56:00,39.6,21.6,29.28,ENE,77,0.0,2.0,48,0.00,,,0.00,meteohub,2013-02-27 07:56:00,
2013-02-27 02:01:00,40.3,21.7,29.25,ENE,76,0.0,2.0,47,0.00,,,0.00,meteohub,2013-02-27 08:01:00,
2013-02-27 02:06:00,40.8,21.6,29.25,East,80,0.0,2.0,46,0.00,,,0.00,meteohub,2013-02-27 08:06:00,
2013-02-27 02:11:00,41.4,21.6,29.25,NE,35,0.0,0.0,45,0.00,,,0.00,meteohub,2013-02-27 08:11:00,
2013-02-27 02:16:00,41.7,20.8,29.25,ENE,71,0.0,3.0,43,0.00,,,0.00,meteohub,2013-02-27 08:16:00,
2013-02-27 02:21:00,42.1,21.2,29.25,ENE,67,0.0,3.0,43,0.00,,,0.00,meteohub,2013-02-27 08:21:00,
2013-02-27 02:26:00,42.4,21.0,29.25,NNE,21,0.0,3.0,42,0.00,,,0.00,meteohub,2013-02-27 08:26:00,
2013-02-27 02:31:00,42.4,20.5,29.28,NE,55,0.0,3.0,41,0.00,,,0.00,meteohub,2013-02-27 08:31:00,
2013-02-27 02:36:00,42.4,20.5,29.28,NNE,33,0.0,3.0,41,0.00,,,0.00,meteohub,2013-02-27 08:36:00,
2013-02-27 02:41:00,42.3,20.3,29.28,NE,34,0.0,3.0,41,0.00,,,0.00,meteohub,2013-02-27 08:41:00,
2013-02-27 02:46:00,41.9,19.9,29.28,NE,34,0.0,0.0,41,0.00,,,0.00,meteohub,2013-02-27 08:46:00,
2013-02-27 02:51:00,41.5,19.6,29.28,NNE,33,0.0,0.0,41,0.00,,,0.00,meteohub,2013-02-27 08:51:00,
2013-02-27 02:57:00,41.4,19.4,29.28,NNE,33,0.0,0.0,41,0.00,,,0.00,meteohub,2013-02-27 08:57:00,
2013-02-27 03:02:00,41.2,19.8,29.28,North,6,0.0,0.0,42,0.00,,,0.00,meteohub,2013-02-27 09:02:00,
2013-02-27 03:07:00,41.0,19.6,29.28,North,6,0.0,0.0,42,0.00,,,0.00,meteohub,2013-02-27 09:07:00,
2013-02-27 03:12:00,40.8,20.1,29.28,North,6,0.0,0.0,43,0.00,,,0.00,meteohub,2013-02-27 09:12:00,
2013-02-27 03:17:00,40.6,19.9,29.28,North,6,0.0,0.0,43,0.00,,,0.00,meteohub,2013-02-27 09:17:00,
2013-02-27 03:22:00,40.6,19.9,29.28,North,6,0.0,0.0,43,0.00,,,0.00,meteohub,2013-02-27 09:22:00,
2013-02-27 03:27:00,40.3,19.6,29.28,North,6,0.0,0.0,43,0.00,,,0.00,meteohub,2013-02-27 09:27:00,
2013-02-27 03:32:00,39.9,19.8,29.28,North,6,0.0,0.0,44,0.00,,,0.00,meteohub,2013-02-27 09:32:00,
2013-02-27 03:37:00,39.7,19.6,29.28,NNW,335,0.0,0.0,44,0.00,,,0.00,meteohub,2013-02-27 09:37:00,
2013-02-27 03:42:00,39.7,19.6,29.28,NNW,335,0.0,0.0,44,0.00,,,0.00,meteohub,2013-02-27 09:42:00,
2013-02-27 03:47:00,39.7,20.1,29.28,North,0,0.0,0.0,45,0.00,,,0.00,meteohub,2013-02-27 09:47:00,
2013-02-27 03:52:00,39.7,20.1,29.28,North,0,0.0,0.0,45,0.00,,,0.00,meteohub,2013-02-27 09:52:00,
2013-02-27 03:57:00,39.7,20.1,29.28,NNW,332,0.0,0.0,45,0.00,,,0.00,meteohub,2013-02-27 09:57:00,
2013-02-27 04:02:00,39.6,20.5,29.28,ENE,77,2.0,0.0,46,0.00,,,0.00,meteohub,2013-02-27 10:02:00,
2013-02-27 04:07:00,39.7,20.7,29.28,NE,52,4.0,4.0,46,0.00,,,0.00,meteohub,2013-02-27 10:07:00,
2013-02-27 04:12:00,39.7,21.2,29.28,NE,45,3.0,5.0,47,0.00,,,0.00,meteohub,2013-02-27 10:12:00,
2013-02-27 04:17:00,39.7,21.2,29.28,NE,49,3.0,5.0,47,0.00,,,0.00,meteohub,2013-02-27 10:17:00,
2013-02-27 04:22:00,39.6,21.0,29.28,NNW,329,3.0,5.0,47,0.00,,,0.00,meteohub,2013-02-27 10:22:00,
2013-02-27 04:28:00,39.6,21.0,29.31,ENE,67,3.0,5.0,47,0.00,,,0.00,meteohub,2013-02-27 10:28:00,
2013-02-27 04:33:00,39.6,21.0,29.31,ENE,64,7.0,7.0,47,0.00,,,0.00,meteohub,2013-02-27 10:33:00,
2013-02-27 04:38:00,39.4,20.8,29.31,NE,44,3.0,7.0,47,0.00,,,0.00,meteohub,2013-02-27 10:38:00,
2013-02-27 04:43:00,39.4,20.8,29.31,NNW,341,0.0,7.0,47,0.00,,,0.00,meteohub,2013-02-27 10:43:00,
2013-02-27 04:48:00,39.4,20.8,29.31,East,100,3.0,7.0,47,0.00,,,0.00,meteohub,2013-02-27 10:48:00,
2013-02-27 04:53:00,39.2,20.7,29.31,ENE,72,3.0,5.0,47,0.00,,,0.00,meteohub,2013-02-27 10:53:00,
2013-02-27 04:58:00,39.2,20.7,29.34,East,79,2.0,5.0,47,0.00,,,0.00,meteohub,2013-02-27 10:58:00,
2013-02-27 05:03:00,39.2,20.7,29.34,ENE,72,3.0,4.0,47,0.00,,,0.00,meteohub,2013-02-27 11:03:00,
2013-02-27 05:08:00,39.2,20.7,29.34,ENE,59,3.0,4.0,47,0.00,,,0.00,meteohub,2013-02-27 11:08:00,
2013-02-27 05:14:00,39.2,21.2,29.34,ENE,60,4.0,4.0,48,0.00,,,0.00,meteohub,2013-02-27 11:14:00,
2013-02-27 05:19:00,39.2,21.2,29.34,North,10,0.0,5.0,48,0.00,,,0.00,meteohub,2013-02-27 11:19:00,
2013-02-27 05:24:00,39.0,21.6,29.34,NW,326,0.0,6.0,49,0.00,,,0.00,meteohub,2013-02-27 11:24:00,
2013-02-27 05:29:00,39.0,21.6,29.36,WSW,249,3.0,6.0,49,0.00,,,0.00,meteohub,2013-02-27 11:29:00,
2013-02-27 05:34:00,39.0,21.6,29.36,ENE,69,0.0,6.0,49,0.00,,,0.00,meteohub,2013-02-27 11:34:00,
2013-02-27 05:39:00,38.8,21.4,29.36,East,92,3.0,4.0,49,0.00,,,0.00,meteohub,2013-02-27 11:39:00,
2013-02-27 05:44:00,38.8,21.4,29.36,NNE,20,0.0,4.0,49,0.00,,,0.00,meteohub,2013-02-27 11:44:00,
2013-02-27 05:49:00,38.7,21.2,29.36,NNW,345,3.0,4.0,49,0.00,,,0.00,meteohub,2013-02-27 11:49:00,
2013-02-27 05:54:00,38.7,21.2,29.36,NNW,329,3.0,4.0,49,0.00,,,0.00,meteohub,2013-02-27 11:54:00,
2013-02-27 05:59:00,38.3,20.8,29.36,NNE,30,4.0,4.0,49,0.00,,,0.00,meteohub,2013-02-27 11:59:00,
2013-02-27 06:04:00,37.9,21.0,29.36,NW,314,3.0,5.0,50,0.00,,,0.00,meteohub,2013-02-27 12:04:00,
2013-02-27 06:09:00,37.6,20.7,29.36,East,84,3.0,6.0,50,0.00,,,0.00,meteohub,2013-02-27 12:09:00,
2013-02-27 06:14:00,37.4,20.8,29.36,ESE,107,0.0,6.0,51,0.00,,,0.00,meteohub,2013-02-27 12:14:00,
2013-02-27 06:20:00,37.0,20.7,29.36,NNW,338,0.0,6.0,51,0.00,,,0.00,meteohub,2013-02-27 12:20:00,
2013-02-27 06:25:00,36.9,20.8,29.36,North,7,3.0,5.0,52,0.00,,,0.00,meteohub,2013-02-27 12:25:00,
2013-02-27 06:30:00,36.7,20.7,29.39,North,2,4.0,5.0,52,0.00,,,0.00,meteohub,2013-02-27 12:30:00,
2013-02-27 06:35:00,36.5,21.0,29.39,East,80,2.0,5.0,53,0.00,,,0.00,meteohub,2013-02-27 12:35:00,
2013-02-27 06:40:00,36.3,20.8,29.39,North,353,3.0,5.0,53,0.00,,,0.00,meteohub,2013-02-27 12:40:00,
2013-02-27 06:45:00,36.3,21.2,29.39,North,357,0.0,5.0,54,0.00,,,0.00,meteohub,2013-02-27 12:45:00,
2013-02-27 06:51:00,36.3,21.2,29.39,NE,52,8.0,8.0,54,0.00,,,0.00,meteohub,2013-02-27 12:51:00,
2013-02-27 06:56:00,36.3,21.2,29.39,North,11,4.0,8.0,54,0.00,,,0.00,meteohub,2013-02-27 12:56:00,
2013-02-27 07:01:00,36.5,21.9,29.39,ENE,58,0.0,8.0,55,0.00,,,0.00,meteohub,2013-02-27 13:01:00,
2013-02-27 07:06:00,36.7,22.1,29.39,NW,326,0.0,8.0,55,0.00,,,0.00,meteohub,2013-02-27 13:06:00,
2013-02-27 07:11:00,36.9,22.3,29.39,NW,325,2.0,5.0,55,0.00,,,0.00,meteohub,2013-02-27 13:11:00,
2013-02-27 07:16:00,37.0,22.5,29.39,North,2,0.0,5.0,55,0.00,,,0.00,meteohub,2013-02-27 13:16:00,
2013-02-27 07:22:00,37.4,22.6,29.39,SSE,149,0.0,5.0,55,0.00,,,0.00,meteohub,2013-02-27 13:22:00,
2013-02-27 07:27:00,37.6,22.5,29.39,NNE,21,2.0,5.0,54,0.00,,,0.00,meteohub,2013-02-27 13:27:00,
2013-02-27 07:32:00,37.8,22.6,29.42,NNE,23,3.0,5.0,54,0.00,,,0.00,meteohub,2013-02-27 13:32:00,
2013-02-27 07:37:00,37.9,22.8,29.42,NNW,331,2.0,5.0,54,0.00,,,0.00,meteohub,2013-02-27 13:37:00,
2013-02-27 07:42:00,37.9,22.3,29.42,NNW,342,0.0,5.0,53,0.00,,,0.00,meteohub,2013-02-27 13:42:00,
2013-02-27 07:47:00,37.9,22.3,29.42,North,0,0.0,6.0,53,0.00,,,0.00,meteohub,2013-02-27 13:47:00,
2013-02-27 07:52:00,38.1,22.1,29.42,NE,39,3.0,6.0,52,0.00,,,0.00,meteohub,2013-02-27 13:52:00,
2013-02-27 07:57:00,38.5,22.5,29.42,ENE,74,0.0,5.0,52,0.00,,,0.00,meteohub,2013-02-27 13:57:00,
2013-02-27 08:02:00,38.8,22.6,29.42,NNW,329,0.0,5.0,52,0.00,,,0.00,meteohub,2013-02-27 14:02:00,
2013-02-27 08:07:00,39.4,22.8,29.42,NE,49,3.0,4.0,51,0.00,,,0.00,meteohub,2013-02-27 14:07:00,
2013-02-27 08:12:00,39.6,22.5,29.42,North,350,4.0,4.0,50,0.00,,,0.00,meteohub,2013-02-27 14:12:00,
2013-02-27 08:17:00,39.9,22.3,29.42,NNW,334,2.0,4.0,49,0.00,,,0.00,meteohub,2013-02-27 14:17:00,
2013-02-27 08:22:00,40.5,22.3,29.42,NNW,337,2.0,5.0,48,0.00,,,0.00,meteohub,2013-02-27 14:22:00,
2013-02-27 08:27:00,40.8,21.6,29.42,North,353,0.0,5.0,46,0.00,,,0.00,meteohub,2013-02-27 14:27:00,
2013-02-27 08:32:00,41.2,21.4,29.45,NNE,18,3.0,4.0,45,0.00,,,0.00,meteohub,2013-02-27 14:32:00,
2013-02-27 08:37:00,41.4,20.5,29.45,NW,319,2.0,4.0,43,0.00,,,0.00,meteohub,2013-02-27 14:37:00,
2013-02-27 08:43:00,41.7,20.8,29.45,North,353,2.0,6.0,43,0.00,,,0.00,meteohub,2013-02-27 14:43:00,
2013-02-27 08:48:00,41.7,20.3,29.45,ENE,61,3.0,6.0,42,0.00,,,0.00,meteohub,2013-02-27 14:48:00,
2013-02-27 08:53:00,42.1,20.7,29.45,SE,142,3.0,6.0,42,0.00,,,0.00,meteohub,2013-02-27 14:53:00,
2013-02-27 08:58:00,42.4,21.0,29.45,NNW,334,0.0,5.0,42,0.00,,,0.00,meteohub,2013-02-27 14:58:00,
2013-02-27 09:03:00,42.8,20.7,29.45,ESE,123,4.0,5.0,41,0.00,,,0.00,meteohub,2013-02-27 15:03:00,
2013-02-27 09:08:00,43.5,21.4,29.45,NNE,29,4.0,5.0,41,0.00,,,0.00,meteohub,2013-02-27 15:08:00,
2013-02-27 09:13:00,43.9,21.2,29.45,WNW,293,2.0,7.0,40,0.00,,,0.00,meteohub,2013-02-27 15:13:00,
2013-02-27 09:18:00,44.2,20.8,29.45,North,11,0.0,7.0,39,0.00,,,0.00,meteohub,2013-02-27 15:18:00,
2013-02-27 09:24:00,44.6,20.5,29.45,NNW,343,4.0,7.0,38,0.00,,,0.00,meteohub,2013-02-27 15:24:00,
2013-02-27 09:29:00,45.0,20.8,29.45,NE,35,4.0,6.0,38,0.00,,,0.00,meteohub,2013-02-27 15:29:00,
2013-02-27 09:34:00,45.1,21.0,29.45,NW,313,0.0,6.0,38,0.00,,,0.00,meteohub,2013-02-27 15:34:00,
2013-02-27 09:39:00,45.5,21.4,29.45,NE,53,2.0,6.0,38,0.00,,,0.00,meteohub,2013-02-27 15:39:00,
2013-02-27 09:44:00,46.0,21.9,29.45,NNW,341,3.0,5.0,38,0.00,,,0.00,meteohub,2013-02-27 15:44:00,
2013-02-27 09:49:00,46.2,21.4,29.45,West,279,0.0,8.0,37,0.00,,,0.00,meteohub,2013-02-27 15:49:00,
2013-02-27 09:54:00,46.4,20.8,29.45,West,268,0.0,8.0,36,0.00,,,0.00,meteohub,2013-02-27 15:54:00,
2013-02-27 09:59:00,46.9,21.4,29.48,NNW,331,0.0,5.0,36,0.00,,,0.00,meteohub,2013-02-27 15:59:00,
2013-02-27 10:04:00,47.5,21.9,29.48,NNE,26,3.0,5.0,36,0.00,,,0.00,meteohub,2013-02-27 16:04:00,
2013-02-27 10:09:00,48.4,21.9,29.48,NW,320,0.0,5.0,35,0.00,,,0.00,meteohub,2013-02-27 16:09:00,
2013-02-27 10:14:00,48.9,21.0,29.48,West,277,2.0,5.0,33,0.00,,,0.00,meteohub,2013-02-27 16:14:00,
2013-02-27 10:20:00,48.9,20.3,29.48,NE,49,4.0,5.0,32,0.00,,,0.00,meteohub,2013-02-27 16:20:00,
2013-02-27 10:25:00,49.3,19.9,29.48,ENE,64,3.0,5.0,31,0.00,,,0.00,meteohub,2013-02-27 16:25:00,
2013-02-27 10:30:00,49.5,20.1,29.48,NNW,335,3.0,4.0,31,0.00,,,0.00,meteohub,2013-02-27 16:30:00,
2013-02-27 10:35:00,50.0,19.8,29.48,SW,229,4.0,5.0,30,0.00,,,0.00,meteohub,2013-02-27 16:35:00,
2013-02-27 10:40:00,50.4,20.1,29.48,ENE,61,0.0,5.0,30,0.00,,,0.00,meteohub,2013-02-27 16:40:00,
2013-02-27 10:45:00,51.1,19.9,29.48,ESE,109,0.0,5.0,29,0.00,,,0.00,meteohub,2013-02-27 16:45:00,
2013-02-27 10:50:00,51.4,19.4,29.48,NW,326,4.0,5.0,28,0.00,,,0.00,meteohub,2013-02-27 16:50:00,
2013-02-27 10:55:00,51.6,19.6,29.48,NW,319,4.0,7.0,28,0.00,,,0.00,meteohub,2013-02-27 16:55:00,
2013-02-27 11:00:00,51.8,18.9,29.48,NW,308,0.0,7.0,27,0.00,,,0.00,meteohub,2013-02-27 17:00:00,
2013-02-27 11:05:00,52.2,19.2,29.48,WNW,303,3.0,4.0,27,0.00,,,0.00,meteohub,2013-02-27 17:05:00,
2013-02-27 11:10:00,52.7,19.6,29.48,NW,315,4.0,4.0,27,0.00,,,0.00,meteohub,2013-02-27 17:10:00,
2013-02-27 11:15:00,52.9,18.9,29.48,NW,322,4.0,6.0,26,0.00,,,0.00,meteohub,2013-02-27 17:15:00,
2013-02-27 11:20:00,53.1,19.0,29.48,NNW,328,3.0,6.0,26,0.00,,,0.00,meteohub,2013-02-27 17:20:00,
2013-02-27 11:25:00,53.2,19.2,29.48,WNW,300,3.0,6.0,26,0.00,,,0.00,meteohub,2013-02-27 17:25:00,
2013-02-27 11:31:00,53.4,19.4,29.48,WNW,301,3.0,7.0,26,0.00,,,0.00,meteohub,2013-02-27 17:31:00,
2013-02-27 11:36:00,53.6,18.7,29.48,NW,315,3.0,8.0,25,0.00,,,0.00,meteohub,2013-02-27 17:36:00,
2013-02-27 11:41:00,54.0,18.9,29.48,North,0,6.0,8.0,25,0.00,,,0.00,meteohub,2013-02-27 17:41:00,
2013-02-27 11:46:00,54.3,19.2,29.48,NNW,342,4.0,8.0,25,0.00,,,0.00,meteohub,2013-02-27 17:46:00,
2013-02-27 11:51:00,54.3,19.2,29.48,North,357,5.0,8.0,25,0.00,,,0.00,meteohub,2013-02-27 17:51:00,
2013-02-27 11:56:00,54.7,17.6,29.48,East,83,3.0,8.0,23,0.00,,,0.00,meteohub,2013-02-27 17:56:00,
2013-02-27 12:01:00,55.0,18.0,29.48,NW,316,3.0,8.0,23,0.00,,,0.00,meteohub,2013-02-27 18:01:00,
2013-02-27 12:06:00,55.2,18.1,29.48,North,353,3.0,7.0,23,0.00,,,0.00,meteohub,2013-02-27 18:06:00,
2013-02-27 12:11:00,55.2,14.9,29.48,ESE,114,3.0,6.0,20,0.00,,,0.00,meteohub,2013-02-27 18:11:00,
2013-02-27 12:16:00,55.0,14.7,29.48,NNW,335,0.0,6.0,20,0.00,,,0.00,meteohub,2013-02-27 18:16:00,
2013-02-27 12:21:00,55.2,14.9,29.48,WNW,294,4.0,8.0,20,0.00,,,0.00,meteohub,2013-02-27 18:21:00,
2013-02-27 12:26:00,55.4,14.9,29.48,NW,305,6.0,8.0,20,0.00,,,0.00,meteohub,2013-02-27 18:26:00,
2013-02-27 12:31:00,55.6,15.1,29.48,NW,311,4.0,8.0,20,0.00,,,0.00,meteohub,2013-02-27 18:31:00,
2013-02-27 12:36:00,55.8,11.7,29.48,NNW,331,4.0,6.0,17,0.00,,,0.00,meteohub,2013-02-27 18:36:00,
2013-02-27 12:41:00,55.8,15.3,29.48,NNE,15,8.0,8.0,20,0.00,,,0.00,meteohub,2013-02-27 18:41:00,
2013-02-27 12:47:00,55.4,14.9,29.48,NNW,331,3.0,11.0,20,0.00,,,0.00,meteohub,2013-02-27 18:47:00,
2013-02-27 12:52:00,55.4,14.9,29.48,West,280,0.0,11.0,20,0.00,,,0.00,meteohub,2013-02-27 18:52:00,
2013-02-27 12:57:00,55.9,15.4,29.48,NW,316,6.0,11.0,20,0.00,,,0.00,meteohub,2013-02-27 18:57:00,
2013-02-27 13:02:00,56.1,15.6,29.48,WNW,285,4.0,6.0,20,0.00,,,0.00,meteohub,2013-02-27 19:02:00,
2013-02-27 13:07:00,56.3,15.8,29.48,WNW,297,3.0,6.0,20,0.00,,,0.00,meteohub,2013-02-27 19:07:00,
2013-02-27 13:12:00,56.1,15.6,29.48,NE,38,4.0,8.0,20,0.00,,,0.00,meteohub,2013-02-27 19:12:00,
2013-02-27 13:17:00,56.3,15.8,29.48,NNW,348,3.0,8.0,20,0.00,,,0.00,meteohub,2013-02-27 19:17:00,
2013-02-27 13:22:00,56.3,15.8,29.48,NW,307,3.0,8.0,20,0.00,,,0.00,meteohub,2013-02-27 19:22:00,
2013-02-27 13:27:00,56.1,15.6,29.48,NNW,330,3.0,7.0,20,0.00,,,0.00,meteohub,2013-02-27 19:27:00,
2013-02-27 13:32:00,56.1,15.6,29.45,NW,314,3.0,7.0,20,0.00,,,0.00,meteohub,2013-02-27 19:32:00,
2013-02-27 13:37:00,56.1,15.6,29.45,NW,310,4.0,7.0,20,0.00,,,0.00,meteohub,2013-02-27 19:37:00,
2013-02-27 13:42:00,56.1,15.6,29.45,North,0,4.0,6.0,20,0.00,,,0.00,meteohub,2013-02-27 19:42:00,
2013-02-27 13:47:00,56.3,15.8,29.45,NNW,327,5.0,6.0,20,0.00,,,0.00,meteohub,2013-02-27 19:47:00,
2013-02-27 13:52:00,56.5,15.8,29.45,ENE,73,4.0,8.0,20,0.00,,,0.00,meteohub,2013-02-27 19:52:00,
2013-02-27 13:57:00,56.7,16.0,29.45,NW,321,6.0,8.0,20,0.00,,,0.00,meteohub,2013-02-27 19:57:00,
2013-02-27 14:02:00,56.5,15.8,29.45,NNW,327,5.0,8.0,20,0.00,,,0.00,meteohub,2013-02-27 20:02:00,
2013-02-27 14:07:00,56.5,18.1,29.45,NW,313,4.0,8.0,22,0.00,,,0.00,meteohub,2013-02-27 20:07:00,
2013-02-27 14:12:00,56.7,18.3,29.45,NW,317,2.0,8.0,22,0.00,,,0.00,meteohub,2013-02-27 20:12:00,
2013-02-27 14:17:00,56.7,18.3,29.45,WNW,283,4.0,8.0,22,0.00,,,0.00,meteohub,2013-02-27 20:17:00,
2013-02-27 14:22:00,56.5,18.1,29.45,NW,324,2.0,8.0,22,0.00,,,0.00,meteohub,2013-02-27 20:22:00,
2013-02-27 14:27:00,56.3,18.0,29.45,NW,317,3.0,8.0,22,0.00,,,0.00,meteohub,2013-02-27 20:27:00,
2013-02-27 14:32:00,55.9,17.6,29.45,NW,306,2.0,8.0,22,0.00,,,0.00,meteohub,2013-02-27 20:32:00,
2013-02-27 14:37:00,55.9,17.6,29.45,NE,46,6.0,8.0,22,0.00,,,0.00,meteohub,2013-02-27 20:37:00,
2013-02-27 14:42:00,55.9,17.6,29.45,North,350,4.0,6.0,22,0.00,,,0.00,meteohub,2013-02-27 20:42:00,
2013-02-27 14:47:00,55.8,17.4,29.45,NW,315,5.0,7.0,22,0.00,,,0.00,meteohub,2013-02-27 20:47:00,
2013-02-27 14:52:00,55.6,17.2,29.45,SE,130,3.0,7.0,22,0.00,,,0.00,meteohub,2013-02-27 20:52:00,
2013-02-27 14:57:00,55.8,17.4,29.45,North,10,3.0,7.0,22,0.00,,,0.00,meteohub,2013-02-27 20:57:00,
2013-02-27 15:02:00,55.8,17.4,29.45,NW,307,4.0,6.0,22,0.00,,,0.00,meteohub,2013-02-27 21:02:00,
2013-02-27 15:07:00,55.9,17.6,29.45,North,357,4.0,6.0,22,0.00,,,0.00,meteohub,2013-02-27 21:07:00,
2013-02-27 15:12:00,55.8,17.4,29.45,NE,40,6.0,9.0,22,0.00,,,0.00,meteohub,2013-02-27 21:12:00,
2013-02-27 15:17:00,55.8,17.4,29.45,ENE,74,2.0,9.0,22,0.00,,,0.00,meteohub,2013-02-27 21:17:00,
2013-02-27 15:22:00,55.8,15.3,29.45,NNW,332,4.0,6.0,20,0.00,,,0.00,meteohub,2013-02-27 21:22:00,
2013-02-27 15:27:00,55.6,15.1,29.45,WSW,257,2.0,6.0,20,0.00,,,0.00,meteohub,2013-02-27 21:27:00,
2013-02-27 15:32:00,55.6,15.1,29.45,NW,312,4.0,6.0,20,0.00,,,0.00,meteohub,2013-02-27 21:32:00,
2013-02-27 15:37:00,55.8,15.3,29.45,North,2,4.0,6.0,20,0.00,,,0.00,meteohub,2013-02-27 21:37:00,
2013-02-27 15:42:00,55.8,15.3,29.45,NW,318,3.0,6.0,20,0.00,,,0.00,meteohub,2013-02-27 21:42:00,
2013-02-27 15:47:00,55.9,15.4,29.45,WNW,293,3.0,6.0,20,0.00,,,0.00,meteohub,2013-02-27 21:47:00,
2013-02-27 15:52:00,55.9,15.4,29.45,West,261,2.0,5.0,20,0.00,,,0.00,meteohub,2013-02-27 21:52:00,
2013-02-27 15:57:00,55.9,15.4,29.45,NNW,328,3.0,5.0,20,0.00,,,0.00,meteohub,2013-02-27 21:57:00,
2013-02-27 16:02:00,55.9,15.4,29.45,WNW,288,3.0,5.0,20,0.00,,,0.00,meteohub,2013-02-27 22:02:00,
2013-02-27 16:07:00,55.9,15.4,29.45,NW,304,3.0,5.0,20,0.00,,,0.00,meteohub,2013-02-27 22:07:00,
2013-02-27 16:12:00,55.9,15.4,29.45,NW,317,3.0,8.0,20,0.00,,,0.00,meteohub,2013-02-27 22:12:00,
2013-02-27 16:17:00,55.9,15.4,29.45,NW,318,3.0,8.0,20,0.00,,,0.00,meteohub,2013-02-27 22:17:00,
2013-02-27 16:22:00,55.9,15.4,29.45,North,357,3.0,8.0,20,0.00,,,0.00,meteohub,2013-02-27 22:22:00,
2013-02-27 16:27:00,55.9,15.4,29.45,NW,312,3.0,8.0,20,0.00,,,0.00,meteohub,2013-02-27 22:27:00,
2013-02-27 16:32:00,55.8,15.3,29.45,NW,305,3.0,10.0,20,0.00,,,0.00,meteohub,2013-02-27 22:32:00,
2013-02-27 16:37:00,55.8,15.3,29.45,SE,130,2.0,10.0,20,0.00,,,0.00,meteohub,2013-02-27 22:37:00,
2013-02-27 16:43:00,55.8,15.3,29.45,WNW,297,3.0,10.0,20,0.00,,,0.00,meteohub,2013-02-27 22:43:00,
2013-02-27 16:48:00,55.8,15.3,29.45,North,353,2.0,8.0,20,0.00,,,0.00,meteohub,2013-02-27 22:48:00,
2013-02-27 16:53:00,55.8,15.3,29.45,NE,50,5.0,7.0,20,0.00,,,0.00,meteohub,2013-02-27 22:53:00,
2013-02-27 16:58:00,55.6,15.1,29.45,North,353,5.0,8.0,20,0.00,,,0.00,meteohub,2013-02-27 22:58:00,
2013-02-27 17:03:00,55.4,14.9,29.45,NW,310,3.0,8.0,20,0.00,,,0.00,meteohub,2013-02-27 23:03:00,
2013-02-27 17:08:00,55.4,11.3,29.45,NW,323,0.0,8.0,17,0.00,,,0.00,meteohub,2013-02-27 23:08:00,
2013-02-27 17:13:00,55.2,14.9,29.45,NW,314,5.0,6.0,20,0.00,,,0.00,meteohub,2013-02-27 23:13:00,
2013-02-27 17:18:00,55.0,12.2,29.45,NW,324,3.0,6.0,18,0.00,,,0.00,meteohub,2013-02-27 23:18:00,
2013-02-27 17:23:00,54.9,12.2,29.45,SW,215,0.0,6.0,18,0.00,,,0.00,meteohub,2013-02-27 23:23:00,
2013-02-27 17:28:00,54.9,12.2,29.48,West,277,3.0,6.0,18,0.00,,,0.00,meteohub,2013-02-27 23:28:00,
2013-02-27 17:33:00,54.7,12.0,29.48,NW,307,4.0,6.0,18,0.00,,,0.00,meteohub,2013-02-27 23:33:00,
2013-02-27 17:38:00,54.5,11.8,29.48,West,270,0.0,4.0,18,0.00,,,0.00,meteohub,2013-02-27 23:38:00,
2013-02-27 17:44:00,54.3,11.7,29.48,NW,315,0.0,9.0,18,0.00,,,0.00,meteohub,2013-02-27 23:44:00,
2013-02-27 17:49:00,54.0,11.5,29.48,NW,322,3.0,9.0,18,0.00,,,0.00,meteohub,2013-02-27 23:49:00,
2013-02-27 17:54:00,53.6,11.1,29.48,SE,124,3.0,9.0,18,0.00,,,0.00,meteohub,2013-02-27 23:54:00,
2013-02-27 17:59:00,53.2,10.8,29.48,NNW,329,4.0,6.0,18,0.00,,,0.00,meteohub,2013-02-27 23:59:00,
2013-02-27 18:04:00,52.9,10.6,29.48,West,270,3.0,9.0,18,0.00,,,0.00,meteohub,2013-02-28 00:04:00,
2013-02-27 18:09:00,52.5,10.2,29.48,NW,311,3.0,9.0,18,0.00,,,0.00,meteohub,2013-02-28 00:09:00,
2013-02-27 18:14:00,52.2,9.9,29.48,West,264,3.0,9.0,18,0.00,,,0.00,meteohub,2013-02-28 00:14:00,
2013-02-27 18:19:00,52.0,9.7,29.48,NW,316,4.0,8.0,18,0.00,,,0.00,meteohub,2013-02-28 00:19:00,
2013-02-27 18:24:00,51.6,12.9,29.48,NNW,339,3.0,5.0,21,0.00,,,0.00,meteohub,2013-02-28 00:24:00,
2013-02-27 18:29:00,51.4,12.7,29.48,North,11,3.0,7.0,21,0.00,,,0.00,meteohub,2013-02-28 00:29:00,
2013-02-27 18:34:00,51.3,12.6,29.48,North,0,4.0,8.0,21,0.00,,,0.00,meteohub,2013-02-28 00:34:00,
2013-02-27 18:39:00,50.9,12.4,29.48,NNW,346,6.0,8.0,21,0.00,,,0.00,meteohub,2013-02-28 00:39:00,
2013-02-27 18:45:00,50.7,12.2,29.48,NW,317,2.0,9.0,21,0.00,,,0.00,meteohub,2013-02-28 00:45:00,
2013-02-27 18:50:00,50.4,11.8,29.48,North,353,4.0,9.0,21,0.00,,,0.00,meteohub,2013-02-28 00:50:00,
2013-02-27 18:55:00,50.2,11.7,29.48,NW,324,0.0,9.0,21,0.00,,,0.00,meteohub,2013-02-28 00:55:00,
2013-02-27 19:00:00,50.0,11.7,29.51,East,90,3.0,9.0,21,0.00,,,0.00,meteohub,2013-02-28 01:00:00,
2013-02-27 19:05:00,49.8,11.5,29.51,NW,319,2.0,9.0,21,0.00,,,0.00,meteohub,2013-02-28 01:05:00,
2013-02-27 19:10:00,49.6,11.3,29.51,NNE,26,3.0,6.0,21,0.00,,,0.00,meteohub,2013-02-28 01:10:00,
2013-02-27 19:15:00,49.5,11.1,29.51,NNW,342,0.0,6.0,21,0.00,,,0.00,meteohub,2013-02-28 01:15:00,
2013-02-27 19:20:00,49.3,10.9,29.51,NNW,344,0.0,4.0,21,0.00,,,0.00,meteohub,2013-02-28 01:20:00,
2013-02-27 19:25:00,49.1,10.8,29.51,NNW,346,0.0,6.0,21,0.00,,,0.00,meteohub,2013-02-28 01:25:00,
2013-02-27 19:30:00,48.9,10.8,29.51,West,274,2.0,6.0,21,0.00,,,0.00,meteohub,2013-02-28 01:30:00,
2013-02-27 19:35:00,48.7,13.5,29.51,NNW,328,0.0,6.0,24,0.00,,,0.00,meteohub,2013-02-28 01:35:00,
2013-02-27 19:40:00,48.6,13.5,29.51,North,3,0.0,4.0,24,0.00,,,0.00,meteohub,2013-02-28 01:40:00,
2013-02-27 19:45:00,48.4,13.3,29.51,NNW,344,0.0,4.0,24,0.00,,,0.00,meteohub,2013-02-28 01:45:00,
2013-02-27 19:50:00,48.2,13.1,29.51,North,353,2.0,6.0,24,0.00,,,0.00,meteohub,2013-02-28 01:50:00,
2013-02-27 19:55:00,48.0,12.9,29.51,North,353,3.0,6.0,24,0.00,,,0.00,meteohub,2013-02-28 01:55:00,
2013-02-27 20:00:00,47.8,12.7,29.54,NNW,327,2.0,6.0,24,0.00,,,0.00,meteohub,2013-02-28 02:00:00,
2013-02-27 20:05:00,47.8,12.7,29.54,NW,305,0.0,6.0,24,0.00,,,0.00,meteohub,2013-02-28 02:05:00,
2013-02-27 20:11:00,47.7,12.6,29.54,WNW,290,0.0,6.0,24,0.00,,,0.00,meteohub,2013-02-28 02:11:00,
2013-02-27 20:16:00,47.5,12.6,29.54,NW,316,2.0,6.0,24,0.00,,,0.00,meteohub,2013-02-28 02:16:00,
2013-02-27 20:21:00,47.3,12.4,29.54,NNW,340,3.0,4.0,24,0.00,,,0.00,meteohub,2013-02-28 02:21:00,
2013-02-27 20:26:00,47.1,14.9,29.54,NNE,27,3.0,8.0,27,0.00,,,0.00,meteohub,2013-02-28 02:26:00,
2013-02-27 20:31:00,46.9,14.7,29.54,WNW,301,4.0,8.0,27,0.00,,,0.00,meteohub,2013-02-28 02:31:00,
2013-02-27 20:36:00,46.8,14.5,29.54,NW,315,4.0,8.0,27,0.00,,,0.00,meteohub,2013-02-28 02:36:00,
2013-02-27 20:41:00,46.6,14.4,29.54,ENE,62,3.0,7.0,27,0.00,,,0.00,meteohub,2013-02-28 02:41:00,
2013-02-27 20:46:00,46.4,14.2,29.54,NNW,337,0.0,7.0,27,0.00,,,0.00,meteohub,2013-02-28 02:46:00,
2013-02-27 20:51:00,46.4,14.2,29.54,WSW,251,6.0,6.0,27,0.00,,,0.00,meteohub,2013-02-28 02:51:00,
2013-02-27 20:56:00,46.2,14.9,29.54,NW,308,0.0,6.0,28,0.00,,,0.00,meteohub,2013-02-28 02:56:00,
2013-02-27 21:01:00,46.2,14.9,29.54,North,353,4.0,6.0,28,0.00,,,0.00,meteohub,2013-02-28 03:01:00,
2013-02-27 21:06:00,46.2,14.9,29.54,SE,129,0.0,10.0,28,0.00,,,0.00,meteohub,2013-02-28 03:06:00,
2013-02-27 21:11:00,46.0,14.7,29.54,NW,318,3.0,10.0,28,0.00,,,0.00,meteohub,2013-02-28 03:11:00,
2013-02-27 21:16:00,45.9,14.5,29.54,North,9,6.0,10.0,28,0.00,,,0.00,meteohub,2013-02-28 03:16:00,
2013-02-27 21:21:00,45.9,14.5,29.54,North,357,3.0,6.0,28,0.00,,,0.00,meteohub,2013-02-28 03:21:00,
2013-02-27 21:26:00,45.5,14.4,29.54,North,353,3.0,6.0,28,0.00,,,0.00,meteohub,2013-02-28 03:26:00,
2013-02-27 21:32:00,45.3,14.2,29.54,North,8,0.0,6.0,28,0.00,,,0.00,meteohub,2013-02-28 03:32:00,
2013-02-27 21:37:00,45.1,14.0,29.54,North,6,0.0,6.0,28,0.00,,,0.00,meteohub,2013-02-28 03:37:00,
2013-02-27 21:42:00,44.8,13.6,29.54,North,353,3.0,6.0,28,0.00,,,0.00,meteohub,2013-02-28 03:42:00,
2013-02-27 21:47:00,44.6,13.5,29.54,NNW,335,0.0,5.0,28,0.00,,,0.00,meteohub,2013-02-28 03:47:00,
2013-02-27 21:52:00,44.4,13.3,29.54,NW,311,2.0,4.0,28,0.00,,,0.00,meteohub,2013-02-28 03:52:00,
2013-02-27 21:57:00,44.2,13.1,29.54,NW,325,0.0,4.0,28,0.00,,,0.00,meteohub,2013-02-28 03:57:00,
2013-02-27 22:02:00,44.1,13.8,29.54,NW,315,3.0,5.0,29,0.00,,,0.00,meteohub,2013-02-28 04:02:00,
2013-02-27 22:07:00,43.7,13.5,29.54,NNW,332,0.0,6.0,29,0.00,,,0.00,meteohub,2013-02-28 04:07:00,
2013-02-27 22:12:00,43.5,13.3,29.54,North,5,0.0,6.0,29,0.00,,,0.00,meteohub,2013-02-28 04:12:00,
2013-02-27 22:17:00,43.3,13.3,29.57,NNW,345,4.0,6.0,29,0.00,,,0.00,meteohub,2013-02-28 04:17:00,
2013-02-27 22:22:00,43.2,13.1,29.57,SE,139,6.0,6.0,29,0.00,,,0.00,meteohub,2013-02-28 04:22:00,
2013-02-27 22:27:00,43.0,12.9,29.57,NW,309,3.0,6.0,29,0.00,,,0.00,meteohub,2013-02-28 04:27:00,
2013-02-27 22:32:00,43.0,12.9,29.57,NNW,346,0.0,6.0,29,0.00,,,0.00,meteohub,2013-02-28 04:32:00,
2013-02-27 22:37:00,42.8,12.7,29.57,WNW,296,0.0,6.0,29,0.00,,,0.00,meteohub,2013-02-28 04:37:00,
2013-02-27 22:42:00,42.6,12.6,29.57,NNW,338,3.0,5.0,29,0.00,,,0.00,meteohub,2013-02-28 04:42:00,
2013-02-27 22:48:00,42.4,13.1,29.57,North,0,0.0,5.0,30,0.00,,,0.00,meteohub,2013-02-28 04:48:00,
2013-02-27 22:53:00,42.3,13.1,29.57,North,2,0.0,6.0,30,0.00,,,0.00,meteohub,2013-02-28 04:53:00,
2013-02-27 22:58:00,42.1,12.9,29.57,East,84,3.0,6.0,30,0.00,,,0.00,meteohub,2013-02-28 04:58:00,
2013-02-27 23:00:00,42.1,12.9,29.57,WNW,302,0.0,6.0,30,0.00,,,0.00,meteohub,2013-02-28 05:00:00,
2013-02-27 23:01:00,42.1,12.9,29.57,NW,318,0.0,6.0,30,0.00,,,0.00,meteohub,2013-02-28 05:01:00,
2013-02-27 23:06:00,41.9,12.7,29.57,NNW,334,5.0,5.0,30,0.00,,,0.00,meteohub,2013-02-28 05:06:00,
2013-02-27 23:11:00,41.7,12.6,29.57,NNW,340,0.0,5.0,30,0.00,,,0.00,meteohub,2013-02-28 05:11:00,
2013-02-27 23:16:00,41.5,12.4,29.57,North,8,3.0,8.0,30,0.00,,,0.00,meteohub,2013-02-28 05:16:00,
2013-02-27 23:21:00,41.5,13.1,29.57,NNW,345,0.0,8.0,31,0.00,,,0.00,meteohub,2013-02-28 05:21:00,
2013-02-27 23:26:00,41.4,12.9,29.57,North,357,3.0,8.0,31,0.00,,,0.00,meteohub,2013-02-28 05:26:00,
2013-02-27 23:32:00,41.2,12.7,29.57,NE,46,0.0,6.0,31,0.00,,,0.00,meteohub,2013-02-28 05:32:00,
2013-02-27 23:37:00,41.2,12.7,29.57,NW,319,0.0,5.0,31,0.00,,,0.00,meteohub,2013-02-28 05:37:00,
2013-02-27 23:42:00,41.2,12.7,29.57,NW,308,3.0,6.0,31,0.00,,,0.00,meteohub,2013-02-28 05:42:00,
2013-02-27 23:47:00,41.0,12.7,29.57,NW,315,2.0,6.0,31,0.00,,,0.00,meteohub,2013-02-28 05:47:00,
2013-02-27 23:52:00,41.0,12.7,29.57,North,357,3.0,6.0,31,0.00,,,0.00,meteohub,2013-02-28 05:52:00,
2013-02-27 23:57:00,41.0,13.5,29.57,North,0,3.0,8.0,32,0.00,,,0.00,meteohub,2013-02-28 05:57:00,